This demonstration page uses our WeatherBlox Daily Observations layout. Learn more.

Left ArrowRight Arrow

Hourly Observations for June 27, 2022

Temp ( °F °C ) Dew Point ( °F °C ) Humidity (%) Winds ( mph kmh ) Pressure ( in mb ) Visibility ( mi km ) Precip ( " mm )
12:15 am 00:15 Mostly Cloudy 72 22 72 22 100 100 Calm 30.02 1017 10 16 0.00 0.00
12:35 am 00:35 Mostly Cloudy 72 22 72 22 100 100 Calm 30.02 1017 10 16 0.00 0.00
12:55 am 00:55 Cloudy 72 22 72 22 100 100 Calm 30.02 1017 10 16 0.00 0.00
1:15 am 01:15 Mostly Cloudy 72 22 72 22 100 100 SSE 3 6 30.02 1017 10 16 0.00 0.00
1:35 am 01:35 Mostly Cloudy 72 22 72 22 100 100 S 6 9 30.01 1016 10 16 0.00 0.00
1:55 am 01:55 Partly Cloudy 72 22 72 22 100 100 S 5 7 30.01 1016 10 16 0.00 0.00
2:15 am 02:15 Clear 72 22 72 22 100 100 SSW 5 7 30.00 1016 10 16 0.00 0.00
2:35 am 02:35 Clear 72 22 72 22 100 100 SSW 5 7 30.00 1016 10 16 0.00 0.00
2:55 am 02:55 Clear 72 22 72 22 100 100 SSW 3 6 29.99 1016 10 16 0.00 0.00
3:15 am 03:15 Mostly Cloudy 72 22 72 22 100 100 SSW 3 6 29.99 1016 10 16 0.00 0.00
3:35 am 03:35 Cloudy 72 22 72 22 100 100 SSW 3 6 29.99 1016 10 16 0.00 0.00
3:55 am 03:55 Cloudy 72 22 72 22 100 100 S 6 9 29.97 1015 10 16 0.00 0.00
4:15 am 04:15 Cloudy 72 22 72 22 100 100 SSW 5 7 29.97 1015 10 16 0.00 0.00
4:35 am 04:35 Cloudy 72 22 72 22 100 100 SSW 3 6 29.97 1015 10 16 0.00 0.00
4:55 am 04:55 Cloudy 72 22 72 22 100 100 Calm 29.97 1015 10 16 0.00 0.00
5:15 am 05:15 Cloudy 72 22 72 22 100 100 Calm 29.97 1015 10 16 0.00 0.00
5:35 am 05:35 Cloudy 72 22 72 22 100 100 Calm 29.97 1015 10 16 0.00 0.00
5:55 am 05:55 Cloudy 72 22 72 22 100 100 Calm 29.97 1015 10 16 0.00 0.00
6:15 am 06:15 Cloudy 72 22 72 22 100 100 Calm 29.97 1015 10 16 0.00 0.00
6:35 am 06:35 Cloudy 72 22 72 22 100 100 Calm 29.98 1015 10 16 0.00 0.00
6:55 am 06:55 Cloudy 72 22 72 22 100 100 Calm 29.97 1015 10 16 0.00 0.00
7:15 am 07:15 Cloudy 72 22 72 22 100 100 SW 5 7 29.97 1015 10 16 0.00 0.00
7:35 am 07:35 Cloudy 72 22 72 22 100 100 Calm 29.98 1015 10 16 0.00 0.00
7:55 am 07:55 Cloudy 72 22 72 22 100 100 Calm 29.99 1016 10 16 0.00 0.00
8:15 am 08:15 Cloudy 73 23 72 22 94 94 Calm 29.99 1015 10 16 0.00 0.00
8:35 am 08:35 Cloudy 73 23 72 22 94 94 Calm 29.99 1015 10 16 0.00 0.00
8:55 am 08:55 Cloudy 73 23 72 22 94 94 Calm 30.00 1016 10 16 0.00 0.00
9:15 am 09:15 Cloudy 73 23 72 22 94 94 Calm 30.01 1016 10 16 0.00 0.00
9:35 am 09:35 Cloudy 73 23 72 22 94 94 SW 3 6 30.01 1016 10 16 0.00 0.00
9:55 am 09:55 Cloudy 73 23 72 22 94 94 Calm 30.01 1016 10 16 0.00 0.00
10:15 am 10:15 Cloudy 73 23 73 23 100 100 WSW 3 6 30.01 1016 10 16 0.00 0.00
10:35 am 10:35 Cloudy 73 23 72 22 94 94 NW 14 22 30.02 1016 10 16 0.00 0.00
10:55 am 10:55 Cloudy 72 22 68 20 88 88 NNW 15 24 30.02 1017 10 16 0.00 0.00
11:15 am 11:15 Cloudy 72 22 70 21 94 94 NNW 8 13 30.03 1017 7 11 0.00 0.00
11:35 am 11:35 Cloudy 72 22 70 21 94 94 NW 8 13 30.04 1017 7 11 0.02 0.51
11:55 am 11:55 Cloudy 72 22 70 21 94 94 NNW 5 7 30.04 1017 10 16 0.02 0.51
12:15 pm 12:15 Cloudy with Nearby Thunderstorms 72 22 70 21 94 94 WNW 3 6 30.04 1017 10 16 0.00 0.00
12:35 pm 12:35 Cloudy 72 22 70 21 94 94 WNW 9 15 30.04 1017 10 16 0.00 0.00
12:55 pm 12:55 Cloudy 73 23 72 22 94 94 WNW 8 13 30.04 1017 10 16 0.00 0.00
1:15 pm 13:15 Cloudy 72 22 70 21 94 94 WNW 10 17 30.04 1017 10 16 0.01 0.25
1:35 pm 13:35 Cloudy 72 22 70 21 94 94 NW 8 13 30.04 1017 10 16 0.01 0.25
1:55 pm 13:55 Mostly Cloudy 73 23 70 21 89 89 NNW 8 13 30.03 1017 10 16 0.01 0.25
2:15 pm 14:15 Cloudy 73 23 70 21 89 89 NNW 10 17 30.03 1017 10 16 0.00 0.00
2:35 pm 14:35 Mostly Cloudy 73 23 70 21 89 89 NNW 12 19 30.02 1016 10 16 0.00 0.00
2:55 pm 14:55 Partly Cloudy 73 23 70 21 89 89 WNW 13 20 30.01 1016 10 16 0.00 0.00
3:15 pm 15:15 Sunny 73 23 70 21 89 89 NW 12 19 30.01 1016 10 16 0.00 0.00
3:35 pm 15:35 Sunny 77 25 68 20 74 74 NNW 9 15 29.99 1016 10 16 0.00 0.00
3:55 pm 15:55 Sunny 79 26 68 20 70 70 NW 8 13 29.99 1016 10 16 0.00 0.00
4:15 pm 16:15 Sunny 79 26 66 19 65 65 N 12 19 29.98 1015 10 16 0.00 0.00
4:35 pm 16:35 Sunny 79 26 68 20 70 70 NW 12 19 29.99 1016 10 16 0.00 0.00
4:55 pm 16:55 Sunny 79 26 68 20 70 70 NW 10 17 29.99 1016 10 16 0.00 0.00
5:15 pm 17:15 Sunny 79 26 68 20 70 70 WNW 7 11 29.98 1015 10 16 0.00 0.00
5:35 pm 17:35 Sunny 81 27 66 19 62 62 NNW 6 9 29.98 1015 10 16 0.00 0.00
5:55 pm 17:55 Sunny 79 26 66 19 65 65 N 5 7 29.98 1015 10 16 0.00 0.00
6:15 pm 18:15 Sunny 79 26 66 19 65 65 N 3 6 29.98 1015 10 16 0.00 0.00
6:35 pm 18:35 Sunny 81 27 66 19 62 62 Calm 29.99 1016 10 16 0.00 0.00
6:55 pm 18:55 Sunny 81 27 66 19 62 62 NNW 3 6 29.99 1016 10 16 0.00 0.00
7:15 pm 19:15 Sunny 79 26 66 19 65 65 N 5 7 30.00 1016 10 16 0.00 0.00
7:35 pm 19:35 Sunny 77 25 68 20 74 74 WSW 5 7 30.01 1016 10 16 0.00 0.00
7:55 pm 19:55 Partly Cloudy 77 25 70 21 79 79 SW 5 7 30.02 1017 10 16 0.00 0.00
8:15 pm 20:15 Partly Cloudy 77 25 68 20 74 74 WSW 5 7 30.03 1017 10 16 0.00 0.00
8:35 pm 20:35 Mostly Cloudy 75 24 68 20 78 78 WNW 3 6 30.04 1017 10 16 0.00 0.00
8:55 pm 20:55 Mostly Cloudy 73 23 63 17 69 69 NW 7 11 30.05 1018 10 16 0.00 0.00
9:15 pm 21:15 Mostly Cloudy 72 22 61 16 69 69 NW 9 15 30.06 1018 10 16 0.00 0.00
9:35 pm 21:35 Partly Cloudy 72 22 61 16 69 69 NW 7 11 30.07 1018 10 16 0.00 0.00
9:55 pm 21:55 Clear 72 22 61 16 69 69 NNW 6 9 30.07 1018 10 16 0.00 0.00
10:15 pm 22:15 Clear 72 22 59 15 65 65 NNW 6 9 30.08 1019 10 16 0.00 0.00
10:35 pm 22:35 Clear 70 21 59 15 69 69 NNW 6 9 30.08 1019 10 16 0.00 0.00
10:55 pm 22:55 Clear 70 21 59 15 69 69 NNW 5 7 30.09 1019 10 16 0.00 0.00
11:15 pm 23:15 Clear 68 20 59 15 73 73 NNW 9 15 30.09 1019 10 16 0.00 0.00
11:35 pm 23:35 Clear 68 20 59 15 73 73 NNW 7 11 30.10 1019 10 16 0.00 0.00
11:55 pm 23:55 Clear 68 20 59 15 73 73 NNW 7 11 30.10 1019 10 16 0.00 0.00

Powered by AerisWeather